This is the latest recevied weather packets stored in our database for station/object N5UKZ-WX. If no packets are shown the sender has not sent any weather packets the latest 10 day(s).
| Time | Temp. | Humidity | Pressure | Rain* | Wind** | Luminosity | Snow |
|---|---|---|---|---|---|---|---|
| 1787673731 | 28.33° C | 100% | 1017.3 hPa | 0 mm | - | - | - |
| 1787672801 | 27.22° C | 100% | 1017.7 hPa | 0 mm | - | - | - |
| 1787671871 | 27.78° C | 100% | 1017.3 hPa | 0 mm | - | - | - |
| 1787670941 | 27.22° C | 100% | 1017.3 hPa | 0 mm | - | - | - |
| 1787670041 | 26.67° C | 100% | 1017.3 hPa | 0 mm | - | - | - |
| 1787669111 | 26.11° C | 100% | 1017.3 hPa | 0 mm | - | - | - |
| 1787668181 | 25.56° C | 100% | 1017.3 hPa | 0 mm | - | - | - |
| 1787667281 | 26.67° C | 100% | 1017.3 hPa | 0 mm | - | - | - |
| 1787666351 | 25° C | 100% | 1017 hPa | 0 mm | - | - | - |
| 1787665421 | 25.56° C | 100% | 1017.3 hPa | 0 mm | - | - | - |
| 1787664491 | 25° C | 100% | 1017 hPa | 0 mm | - | - | - |
| 1787663591 | 25° C | 100% | 1017 hPa | 0 mm | - | - | - |
| 1787662691 | 25° C | 100% | 1017 hPa | 0 mm | - | - | - |
| 1787661761 | 25° C | 100% | 1017 hPa | 0 mm | - | - | - |
| 1787660831 | 24.44° C | 100% | 1017 hPa | 0 mm | - | - | - |
| 1787659901 | 24.44° C | 100% | 1016.6 hPa | 0 mm | - | - | - |
| 1787659001 | 24.44° C | 100% | 1016.3 hPa | 0 mm | - | - | - |
| 1787658071 | 24.44° C | 100% | 1016.3 hPa | 0 mm | - | - | - |
| 1787657141 | 23.89° C | 100% | 1016.3 hPa | 0 mm | - | - | - |
| 1787656241 | 24.44° C | 100% | 1016.3 hPa | 0 mm | - | - | - |
| 1787655311 | 23.89° C | 100% | 1016 hPa | 0 mm | - | - | - |
| 1787654381 | 23.89° C | 100% | 1016 hPa | 0 mm | - | - | - |
| 1787653451 | 23.89° C | 100% | 1015.6 hPa | 0 mm | - | - | - |
| 1787652551 | 23.89° C | 100% | 1015.6 hPa | 0 mm | - | - | - |
| 1787651621 | 23.89° C | 100% | 1015.6 hPa | 0 mm | - | - | - |
* Rain latest hour (hover to see other rain measurements)
** Current wind speed in m/s (hover to see current wind gust speed)